Location: Sperry Observatory
(40.6664°N, 74.3236°W)
Time: 09:48:55
(UTC-05:00)

Amateur Radio Satellites - All Passes

Search period start: 24 November 2014 09:18
Search period end: 25 November 2014 09:18
Location: Sperry Observatory, 40.6664°N, 74.3236°W

Satellite Date Start Highest point End Downlink Frequencies (MHz)
Time Altitude Azimuth
UNISAT 6 24 Nov 09:23:07 09:27:09 42° 72° (ENE) 09:31:11 437.425
NANOSAT C BR1 24 Nov 09:25:26 09:29:12 31° 70° (ENE) 09:32:58 145.865
COMPASS 1 24 Nov 09:26:48 09:31:02 67° 285° (WNW) 09:35:14 437.405
DELFI C3 24 Nov 09:28:29 09:32:29 45° 99° (E) 09:36:27 145.870
VELOX 1 24 Nov 09:29:03 09:31:30 15° 92° (E) 09:33:56 145.980
HUMSAT D 24 Nov 09:33:06 09:35:33 15° 92° (E) 09:38:01 437.325/437.525
ZACube-1 24 Nov 09:33:45 09:37:19 26° 96° (E) 09:40:56 437.345
QB50P1 24 Nov 09:34:47 09:38:46 40° 72° (ENE) 09:42:45 145.935-145.965
50 SAT 24 Nov 09:35:55 09:37:48 13° 91° (E) 09:39:42 437.505
DOVE 4 24 Nov 09:47:43 09:51:48 57° 286° (WNW) 09:55:58 437.250
ANTELSAT 24 Nov 09:51:21 09:55:38 89° 73° (ENE) 09:59:55 437.575/2403.000
CUTE 1.7 & AOD 2 24 Nov 09:52:34 09:56:09 26° 291° (WNW) 09:59:43 437.475
AISAT 24 Nov 09:52:58 09:56:45 27° 96° (E) 10:00:30 437.250
BUGSAT 1 24 Nov 09:55:42 09:59:53 57° 74° (ENE) 10:04:04 437.445
POPSAT HIP 1 24 Nov 09:58:59 10:03:15 76° 76° (ENE) 10:07:31 437.405
FUNcube-1 24 Nov 10:08:54 10:13:06 66° 101° (ESE) 10:17:22 145.935
UKube-1 24 Nov 10:09:19 10:13:37 62° 286° (WNW) 10:17:52 .
CUBEBUG 1 24 Nov 10:14:11 10:16:55 16° 92° (E) 10:19:37 437.445
GOMX 1 24 Nov 10:21:34 10:24:31 19° 293° (WNW) 10:27:30 467.674
Oscar 11 24 Nov 10:22:23 10:26:23 37° 289° (WNW) 10:30:24 145.826/435.025
CUBEBUG 2 24 Nov 10:25:41 10:29:49 57° 286° (WNW) 10:34:03 437.445
SEEDS 24 Nov 10:29:29 10:31:29 13° 296° (WNW) 10:33:30 437.485
UWE-3 24 Nov 10:30:04 10:34:13 59° 286° (WNW) 10:38:27 435.000/436.395/437.385
POLYITAN 1 24 Nov 10:31:34 10:35:39 45° 261° (W) 10:39:45 437.675
GONETS M04 24 Nov 10:33:41 10:39:26 19° 298° (WNW) 10:45:15
QB50P2 24 Nov 10:34:27 10:38:30 41° 261° (W) 10:42:33 145.880/145.840
CINEMA 3 24 Nov 10:38:48 10:42:19 27° 290° (WNW) 10:45:55 145.822/145.860
DUCHIFAT 1 24 Nov 10:41:59 10:45:53 35° 262° (W) 10:49:48 145.980
DX 1 24 Nov 10:43:25 10:47:03 26° 292° (WNW) 10:50:39 434.975-435.025
TIGRISAT 24 Nov 10:48:10 10:51:29 22° 265° (W) 10:54:48 435.000
HO-68 24 Nov 10:49:33 10:54:46 22° 303° (WNW) 10:59:58 435.675
AAUSAT CUBESAT 2 24 Nov 10:51:44 10:52:13 10° 298° (WNW) 10:52:41 437.432
ESTCUBE 1 24 Nov 10:55:33 10:59:58 49° 100° (E) 11:04:21 437.505/2401.250
UNISAT 6 24 Nov 11:01:33 11:04:10 16° 268° (W) 11:06:47 437.425
NANOSAT C BR1 24 Nov 11:01:49 11:05:07 22° 265° (W) 11:08:25 145.865
VELOX 1 24 Nov 11:04:06 11:08:23 50° 288° (WNW) 11:12:38 145.980
DELFI C3 24 Nov 11:05:01 11:07:25 15° 295° (WNW) 11:09:48 145.870
HUMSAT D 24 Nov 11:07:38 11:11:34 42° 288° (WNW) 11:15:32 437.325/437.525
50 SAT 24 Nov 11:09:29 11:13:23 47° 287° (WNW) 11:17:18 437.505
ZACube-1 24 Nov 11:10:08 11:13:38 26° 291° (WNW) 11:17:10 437.345
QB50P1 24 Nov 11:12:01 11:14:49 17° 267° (W) 11:17:38 145.935-145.965
AISAT 24 Nov 11:29:35 11:33:19 27° 292° (WNW) 11:37:01 437.250
BUGSAT 1 24 Nov 11:34:06 11:35:43 12° 269° (W) 11:37:20 437.445
TISAT 1 24 Nov 11:41:18 11:45:13 36° 98° (E) 11:49:05 437.305
SPROUT 24 Nov 11:45:04 11:49:01 36° 98° (E) 11:52:57 437.525
FUNcube-1 24 Nov 11:47:37 11:48:57 11° 297° (WNW) 11:50:17 145.935
CUBEBUG 1 24 Nov 11:49:21 11:53:30 43° 288° (WNW) 11:57:37 437.445
SO-50 24 Nov 11:56:58 12:01:18 31° 48° (NE) 12:05:39 436.795
M-CUBED/EXP-1 PRIME 24 Nov 11:58:06 11:59:45 12° 93° (E) 12:01:23 437.505
CUSAT 1 24 Nov 12:17:19 12:18:54 14° 94° (E) 12:20:25 437.405
Oscar 19 24 Nov 12:17:57 12:22:54 54° 72° (ENE) 12:27:53 437.125/150
BEESAT 24 Nov 12:19:09 12:21:46 15° 91° (E) 12:24:22 436.000
ESTCUBE 1 24 Nov 12:33:34 12:36:27 17° 296° (WNW) 12:39:19 437.505/2401.250
DANDE 24 Nov 12:34:13 12:36:30 20° 96° (E) 12:38:35 436.750
YUBILEINY 24 Nov 12:53:40 13:01:49 41° 73° (ENE) 13:09:51 435.215
ITAMSAT 1 24 Nov 13:06:40 13:11:48 62° 73° (ENE) 13:16:57 435.822/435.867
ITUPSAT 1 24 Nov 13:12:03 13:16:44 50° 100° (E) 13:21:23 437.325
KKS-1 24 Nov 13:17:06 13:18:04 11° 90° (E) 13:19:02 437.445
TISAT 1 24 Nov 13:17:50 13:20:47 19° 294° (WNW) 13:23:44 437.305
SPROUT 24 Nov 13:21:46 13:24:52 20° 294° (WNW) 13:27:57 437.525
SWISSCUBE 24 Nov 13:23:40 13:28:29 73° 102° (ESE) 13:33:15 437.505
AUBIESAT-1 24 Nov 13:26:25 13:31:22 85° 108° (ESE) 13:36:12 437.475
Gurwin Techsat 1B 24 Nov 13:28:06 13:33:16 55° 72° (ENE) 13:38:28 435.225
HORYU 2 24 Nov 13:29:22 13:32:49 23° 67° (ENE) 13:36:16 437.375
M-CUBED/EXP-1 PRIME 24 Nov 13:30:20 13:35:18 82° 289° (WNW) 13:40:10 437.505
AO-7 24 Nov 13:35:42 13:41:55 24° 54° (NE) 13:48:09 29.400- 29.500
SO-50 24 Nov 13:37:26 13:41:53 36° 245° (WSW) 13:46:20 436.795
VERMONT LUNAR 24 Nov 13:52:02 13:53:42 13° 146° (SE) 13:55:22 437.305
BEESAT 24 Nov 13:55:15 13:59:59 58° 287° (WNW) 14:04:40 436.000
Oscar 19 24 Nov 13:59:13 14:02:33 17° 268° (W) 14:05:55 437.125/150
CUSAT 1 24 Nov 14:01:10 14:01:57 11° 287° (WNW) 14:02:44 437.405
STARS 24 Nov 14:14:11 14:18:07 31° 97° (E) 14:22:01 437.465
MaSat-1 24 Nov 14:42:33 14:45:03 23° 111° (ESE) 14:47:22 437.345
ITAMSAT 1 24 Nov 14:48:35 14:51:41 16° 269° (W) 14:54:49 435.822/435.867
YUBILEINY 24 Nov 14:50:34 14:58:34 43° 273° (W) 15:06:32 435.215
KKS-1 24 Nov 14:50:44 14:55:10 68° 285° (WNW) 14:59:33 437.445
ITUPSAT 1 24 Nov 14:50:59 14:54:14 18° 296° (WNW) 14:57:28 437.325
JAS-2 24 Nov 14:55:04 15:00:49 24° 59° (ENE) 15:06:40 435.910
O/OREOS (USA 219) 24 Nov 14:57:11 15:00:36 21° 57° (ENE) 15:03:59 437.305
AUBIESAT-1 24 Nov 15:03:20 15:05:39 13° 304° (NW) 15:07:57 437.475
SWISSCUBE 24 Nov 15:03:33 15:05:43 13° 299° (WNW) 15:07:52 437.505
HORYU 2 24 Nov 15:05:19 15:09:18 33° 263° (W) 15:13:19 437.375
M-CUBED/EXP-1 PRIME 24 Nov 15:07:56 15:09:32 12° 306° (NW) 15:11:08 437.505
Gurwin Techsat 1B 24 Nov 15:09:59 15:13:34 18° 268° (W) 15:17:10 435.225
PHONESAT 2.4 24 Nov 15:10:11 15:13:28 30° 154° (SSE) 15:16:45 2401.200-2431.200
RS-15 24 Nov 15:16:13 15:26:09 42° 108° (ESE) 15:36:01 29.354- 29.394
AO-7 24 Nov 15:25:31 15:33:48 81° 253° (WSW) 15:42:11 29.400- 29.500
VERMONT LUNAR 24 Nov 15:28:10 15:31:39 47° 160° (SSE) 15:35:09 437.305
MOZHAYETS 4 24 Nov 15:44:43 15:46:40 12° 90° (E) 15:48:36
STARS 24 Nov 15:50:58 15:54:26 23° 293° (WNW) 15:57:54 437.465
CUTE-I 24 Nov 16:15:33 16:19:26 21° 63° (ENE) 16:23:18 437.470
MaSat-1 24 Nov 16:18:00 16:19:37 14° 303° (WNW) 16:21:10 437.345
O/OREOS (USA 219) 24 Nov 16:35:59 16:40:08 38° 254° (WSW) 16:44:16 437.305
JAS-2 24 Nov 16:37:22 16:44:56 79° 257° (WSW) 16:52:52 435.910
PHONESAT 2.4 24 Nov 16:48:18 16:52:02 78° 170° (S) 16:55:45 2401.200-2431.200
VERMONT LUNAR 24 Nov 17:06:24 17:10:03 89° 178° (S) 17:13:42 437.305
Cubesat XI-IV 24 Nov 17:11:49 17:17:08 66° 73° (ENE) 17:22:28 437.490
MOZHAYETS 4 24 Nov 17:19:41 17:24:19 64° 286° (WNW) 17:28:54
AO-7 24 Nov 17:23:31 17:27:45 15° 271° (W) 17:32:02 29.400- 29.500
RS-15 24 Nov 17:27:22 17:38:05 58° 310° (NW) 17:48:53 29.354- 29.394
PRISM 24 Nov 17:31:44 17:35:30 30° 97° (E) 17:39:12 437.425
HO-68 24 Nov 17:48:05 17:49:14 10° 48° (NE) 17:50:23 435.675
CUTE-I 24 Nov 17:53:51 17:59:05 53° 260° (W) 18:04:20 437.470
PCSat 24 Nov 18:15:05 18:16:07 11° 101° (ESE) 18:17:10 145.827
PHONESAT 2.4 24 Nov 18:27:06 18:30:50 82° 188° (S) 18:34:34 2401.200-2431.200
JAS-2 24 Nov 18:27:07 18:31:03 15° 275° (W) 18:35:05 435.910
AIST 1 24 Nov 18:29:24 18:31:09 12° 84° (E) 18:32:55
BRITE-PL 24 Nov 18:37:43 18:38:02 10° 62° (ENE) 18:38:22 437.365/2234.400
GONETS M04 24 Nov 18:43:27 18:51:53 46° 75° (ENE) 19:00:12
VERMONT LUNAR 24 Nov 18:44:55 18:48:31 64° 194° (SSW) 18:52:07 437.305
STRAND 1 24 Nov 18:48:43 18:53:50 71° 102° (ESE) 18:58:54 437.568
Cubesat XI-IV 24 Nov 18:54:35 18:57:40 15° 269° (W) 19:00:46 437.490
CUBESAT XI-V 24 Nov 18:56:27 19:01:09 85° 283° (WNW) 19:05:47 437.345
BEESAT 3 24 Nov 19:03:15 19:04:04 11° 107° (ESE) 19:04:53 437.485
PRISM 24 Nov 19:07:32 19:10:53 23° 293° (WNW) 19:14:13 437.425
CUTE 1.7 & AOD 2 24 Nov 19:10:20 19:13:19 19° 67° (ENE) 19:16:18 437.475
BEESAT 2 24 Nov 19:16:00 19:18:06 14° 109° (ESE) 19:20:13 435.950
DOVE 4 24 Nov 19:18:08 19:20:20 14° 65° (ENE) 19:22:30 437.250
HO-68 24 Nov 19:28:26 19:35:22 55° 68° (ENE) 19:42:20 435.675
UKube-1 24 Nov 19:31:42 19:32:47 11° 61° (ENE) 19:33:53 .
Oscar 11 24 Nov 19:42:37 19:45:05 15° 64° (ENE) 19:47:33 145.826/435.025
AIST 2 24 Nov 19:43:33 19:45:41 14° 108° (ESE) 19:47:50 435.215
SEEDS 24 Nov 19:44:17 19:48:10 38° 72° (ENE) 19:52:04 437.485
RS-15 24 Nov 19:45:25 19:53:33 23° 341° (NNW) 20:01:50 29.354- 29.394
GOMX 1 24 Nov 19:50:34 19:55:03 39° 72° (ENE) 19:59:16 467.674
CUBEBUG 2 24 Nov 19:51:18 19:52:00 10° 63° (ENE) 19:52:42 437.445
PCSat 24 Nov 19:53:14 19:58:39 86° 117° (ESE) 20:04:07 145.827
DX 1 24 Nov 20:02:57 20:06:28 24° 67° (ENE) 20:10:00 434.975-435.025
CINEMA 3 24 Nov 20:03:52 20:07:22 24° 69° (ENE) 20:10:47 145.822/145.860
AIST 1 24 Nov 20:03:58 20:08:16 55° 280° (W) 20:12:37
AAUSAT CUBESAT 2 24 Nov 20:04:05 20:08:04 47° 73° (ENE) 20:12:06 437.432
PHONESAT 2.4 24 Nov 20:06:03 20:09:27 34° 204° (SSW) 20:12:50 2401.200-2431.200
CANX-2 24 Nov 20:09:48 20:14:01 84° 258° (WSW) 20:18:16 2200.000
BRITE-PL 24 Nov 20:10:49 20:15:57 88° 77° (ENE) 20:20:41 437.365/2234.400
DELFI C3 24 Nov 20:17:29 20:20:58 28° 70° (ENE) 20:24:28 145.870
COMPASS 1 24 Nov 20:18:08 20:22:17 80° 76° (ENE) 20:26:29 437.405
VERMONT LUNAR 24 Nov 20:23:54 20:26:39 20° 210° (SSW) 20:29:23 437.305
HUMSAT D 24 Nov 20:27:01 20:28:19 11° 63° (ENE) 20:29:38 437.325/437.525
VELOX 1 24 Nov 20:27:27 20:29:50 14° 63° (ENE) 20:32:13 145.980
STRAND 1 24 Nov 20:29:37 20:32:25 15° 299° (WNW) 20:35:12 437.568
ZACube-1 24 Nov 20:30:29 20:33:39 21° 68° (ENE) 20:36:47 437.345
BEESAT 3 24 Nov 20:37:36 20:41:40 69° 303° (WNW) 20:45:51 437.485
GONETS M04 24 Nov 20:40:35 20:48:30 39° 274° (W) 20:56:21
CUTE 1.7 & AOD 2 24 Nov 20:45:07 20:48:59 36° 263° (W) 20:52:54 437.475
AISAT 24 Nov 20:51:16 20:54:57 25° 68° (ENE) 20:58:37 437.250
BEESAT 2 24 Nov 20:51:52 20:55:55 54° 305° (NW) 21:00:02 435.950
DOVE 4 24 Nov 20:53:04 20:57:42 61° 259° (W) 21:02:05 437.250
UKube-1 24 Nov 21:03:59 21:08:20 75° 257° (WSW) 21:12:42 .
FUNcube-1 24 Nov 21:04:54 21:08:58 49° 73° (ENE) 21:13:00 145.935
CUBEBUG 1 24 Nov 21:11:04 21:13:32 15° 64° (ENE) 21:16:01 437.445
Oscar 11 24 Nov 21:16:40 21:20:50 49° 261° (W) 21:25:02 145.826/435.025
HO-68 24 Nov 21:17:21 21:23:21 29° 265° (W) 21:29:25 435.675
AIST 2 24 Nov 21:19:39 21:23:49 57° 305° (NW) 21:28:03 435.215
SEEDS 24 Nov 21:21:24 21:24:09 17° 267° (W) 21:26:55 437.485
CUBEBUG 2 24 Nov 21:23:52 21:28:10 72° 259° (WSW) 21:32:22 437.445
UWE-3 24 Nov 21:27:10 21:31:25 76° 258° (WSW) 21:35:37 435.000/436.395/437.385
GOMX 1 24 Nov 21:29:40 21:33:15 20° 266° (W) 21:36:41 467.674
DX 1 24 Nov 21:38:42 21:42:34 30° 263° (W) 21:46:28 434.975-435.025
PCSat 24 Nov 21:39:21 21:42:48 17° 317° (NW) 21:46:15 145.827
CINEMA 3 24 Nov 21:40:34 21:44:28 30° 263° (W) 21:48:15 145.822/145.860
AAUSAT CUBESAT 2 24 Nov 21:41:58 21:44:02 13° 269° (W) 21:46:07 437.432
ANTELSAT 24 Nov 21:44:37 21:47:49 19° 94° (E) 21:51:04 437.575/2403.000
POPSAT HIP 1 24 Nov 21:46:59 21:48:48 13° 91° (E) 21:50:37 437.405
DELFI C3 24 Nov 21:53:06 21:56:16 22° 266° (W) 21:59:28 145.870
ESTCUBE 1 24 Nov 21:55:04 21:59:23 44° 72° (ENE) 22:03:43 437.505/2401.250
50 SAT 24 Nov 21:57:55 22:01:58 79° 258° (WSW) 22:06:00 437.505
HUMSAT D 24 Nov 21:59:31 22:03:37 62° 259° (W) 22:07:43 437.325/437.525
VELOX 1 24 Nov 22:01:32 22:05:57 58° 259° (W) 22:10:22 145.980
RS-15 24 Nov 22:03:20 22:11:28 22° 18° (NNE) 22:19:47 29.354- 29.394
ZACube-1 24 Nov 22:06:03 22:09:51 32° 263° (W) 22:13:37 437.345
POLYITAN 1 24 Nov 22:18:05 22:21:47 29° 96° (E) 22:25:28 437.675
BEESAT 3 24 Nov 22:20:23 22:20:43 10° 323° (NW) 22:21:02 437.485
QB50P2 24 Nov 22:20:38 22:24:25 31° 97° (E) 22:28:10 145.880/145.840
AISAT 24 Nov 22:27:31 22:31:28 30° 263° (W) 22:35:25 437.250
DUCHIFAT 1 24 Nov 22:27:32 22:31:26 36° 98° (E) 22:35:19 145.980
TISAT 1 24 Nov 22:34:01 22:37:40 28° 69° (ENE) 22:41:19 437.305
TIGRISAT 24 Nov 22:38:53 22:43:18 74° 102° (ESE) 22:47:48 435.000
SPROUT 24 Nov 22:39:25 22:43:05 28° 69° (ENE) 22:46:46 437.525
FUNcube-1 24 Nov 22:43:35 22:45:36 13° 269° (W) 22:47:37 145.935
AUBIESAT-1 24 Nov 22:44:16 22:45:37 11° 54° (NE) 22:47:00 437.475
CUBEBUG 1 24 Nov 22:45:06 22:49:28 55° 260° (W) 22:53:50 437.445
NANOSAT C BR1 24 Nov 22:46:31 22:50:42 61° 101° (E) 22:54:52 145.865
ISS 24 Nov 22:46:54 22:49:17 19° 132° (SE) 22:51:40 145.825
M-CUBED/EXP-1 PRIME 24 Nov 22:47:42 22:49:46 14° 56° (NE) 22:51:53 437.505
UNISAT 6 24 Nov 22:51:45 22:56:12 79° 284° (WNW) 23:00:43 437.425
CUSAT 1 24 Nov 22:53:04 22:56:46 23° 76° (ENE) 23:01:20 437.405
QB50P1 24 Nov 22:56:11 23:00:25 80° 102° (ESE) 23:04:38 145.935-145.965
DANDE 24 Nov 23:12:34 23:16:25 29° 78° (ENE) 23:21:20 436.750
BUGSAT 1 24 Nov 23:14:14 23:18:20 76° 284° (WNW) 23:22:22 437.445
ANTELSAT 24 Nov 23:20:37 23:24:44 39° 289° (WNW) 23:28:56 437.575/2403.000
POPSAT HIP 1 24 Nov 23:20:55 23:25:02 53° 287° (WNW) 23:29:07 437.405
BEESAT 24 Nov 23:25:41 23:28:48 18° 63° (ENE) 23:31:57 436.000
ESTCUBE 1 24 Nov 23:33:26 23:36:28 18° 267° (W) 23:39:31 437.505/2401.250
POLYITAN 1 24 Nov 23:54:15 23:57:36 23° 292° (WNW) 00:00:57 437.675
QB50P2 24 Nov 23:56:54 00:00:10 22° 293° (WNW) 00:03:25 145.880/145.840
DUCHIFAT 1 25 Nov 00:04:05 00:07:03 19° 294° (WNW) 00:10:01 145.980
TISAT 1 25 Nov 00:09:58 00:13:28 24° 265° (W) 00:16:59 437.305
SPROUT 25 Nov 00:15:33 00:19:08 25° 265° (W) 00:22:44 437.525
AUBIESAT-1 25 Nov 00:15:53 00:19:52 77° 253° (WSW) 00:24:16 437.475
KKS-1 25 Nov 00:16:00 00:17:03 11° 61° (ENE) 00:18:07 437.445
RS-15 25 Nov 00:16:17 00:27:12 54° 48° (NE) 00:38:33 29.354- 29.394
TIGRISAT 25 Nov 00:18:09 00:19:29 11° 298° (WNW) 00:20:49 435.000
ITUPSAT 1 25 Nov 00:18:37 00:23:19 56° 73° (ENE) 00:28:03 437.325
M-CUBED/EXP-1 PRIME 25 Nov 00:20:16 00:24:11 62° 255° (WSW) 00:28:32 437.505
MaSat-1 25 Nov 00:21:14 00:23:20 29° 61° (ENE) 00:25:29 437.345
ISS 25 Nov 00:22:30 00:25:42 48° 328° (NNW) 00:28:54 145.825
NANOSAT C BR1 25 Nov 00:24:26 00:26:04 12° 297° (WNW) 00:27:42 145.865
SWISSCUBE 25 Nov 00:29:59 00:34:47 81° 75° (ENE) 00:39:38 437.505
Oscar 19 25 Nov 00:30:41 00:34:23 20° 93° (E) 00:38:04 437.125/150
CUSAT 1 25 Nov 00:35:32 00:39:50 38° 264° (W) 00:45:27 437.405
DANDE 25 Nov 00:55:56 00:59:50 28° 264° (W) 01:04:47 436.750
BEESAT 25 Nov 01:01:34 01:06:13 52° 260° (W) 01:10:56 436.000
STARS 25 Nov 01:11:27 01:15:12 28° 68° (ENE) 01:18:56 437.465
ITAMSAT 1 25 Nov 01:20:40 01:24:40 22° 94° (E) 01:28:38 435.822/435.867
Gurwin Techsat 1B 25 Nov 01:45:21 01:49:28 23° 93° (E) 01:53:33 435.225
KKS-1 25 Nov 01:48:36 01:53:03 78° 257° (WSW) 01:57:31 437.445
YUBILEINY 25 Nov 01:53:56 02:02:14 48° 88° (E) 02:10:30 435.215
ITUPSAT 1 25 Nov 01:58:46 02:01:33 15° 269° (W) 02:04:21 437.325
ISS 25 Nov 02:00:58 02:02:57 15° 347° (NNW) 02:04:57 145.825
Oscar 19 25 Nov 02:09:00 02:13:58 49° 289° (WNW) 02:18:56 437.125/150
SWISSCUBE 25 Nov 02:12:52 02:13:13 10° 271° (W) 02:13:34 437.505
RS-15 25 Nov 02:28:57 02:39:29 48° 250° (WSW) 02:50:28 29.354- 29.394
MOZHAYETS 4 25 Nov 02:47:22 02:49:13 12° 62° (ENE) 02:51:05
STARS 25 Nov 02:47:56 02:51:38 26° 264° (W) 02:55:20 437.465
HORYU 2 25 Nov 02:56:46 03:01:06 47° 100° (E) 03:05:26 437.375
ITAMSAT 1 25 Nov 02:59:26 03:04:20 44° 290° (WNW) 03:09:11 435.822/435.867
PCSat 25 Nov 03:00:16 03:02:26 12° 38° (NE) 03:04:35 145.827
Gurwin Techsat 1B 25 Nov 03:24:34 03:29:36 45° 290° (WNW) 03:34:37 435.225
AO-7 25 Nov 03:27:50 03:35:22 36° 98° (E) 03:42:50 29.400- 29.500
BEESAT 2 25 Nov 03:36:03 03:37:40 12° 39° (NE) 03:39:17 435.950
ISS 25 Nov 03:38:58 03:40:40 13° 8° (N) 03:42:22 145.825
JAS-2 25 Nov 03:50:40 03:54:47 16° 85° (E) 03:58:39 435.910
YUBILEINY 25 Nov 03:51:11 03:59:10 37° 288° (WNW) 04:07:10 435.215
SO-50 25 Nov 03:51:23 03:55:53 83° 121° (ESE) 04:00:33 436.795
AIST 2 25 Nov 04:05:10 04:06:59 12° 39° (NE) 04:08:47 435.215
MOZHAYETS 4 25 Nov 04:21:15 04:25:49 72° 258° (WSW) 04:30:27
PRISM 25 Nov 04:22:52 04:26:09 23° 67° (ENE) 04:29:29 437.425
CUBESAT XI-V 25 Nov 04:27:09 04:27:26 10° 60° (ENE) 04:27:43 437.345
STRAND 1 25 Nov 04:28:45 04:30:57 13° 59° (ENE) 04:33:08 437.568
HORYU 2 25 Nov 04:34:30 04:37:25 17° 296° (WNW) 04:40:20 437.375
PCSat 25 Nov 04:41:33 04:46:57 64° 59° (ENE) 04:52:19 145.827
BEESAT 3 25 Nov 04:57:54 05:02:05 66° 56° (NE) 05:06:13 437.485
O/OREOS (USA 219) 25 Nov 05:09:18 05:12:52 24° 102° (ESE) 05:16:27 437.305
BEESAT 2 25 Nov 05:12:24 05:16:39 84° 59° (ENE) 05:20:48 435.950
ISS 25 Nov 05:15:04 05:18:05 32° 28° (NNE) 05:21:07 145.825
AO-7 25 Nov 05:20:19 05:28:19 52° 296° (WNW) 05:36:19 29.400- 29.500
Cubesat XI-IV 25 Nov 05:30:05 05:34:33 27° 95° (E) 05:38:57 437.490
JAS-2 25 Nov 05:33:37 05:40:50 81° 286° (WNW) 05:47:08 435.910
SO-50 25 Nov 05:34:21 05:37:05 15° 321° (NW) 05:39:52 436.795
AIST 2 25 Nov 05:41:58 05:46:18 84° 58° (ENE) 05:50:34 435.215
PRISM 25 Nov 05:57:51 06:01:33 30° 263° (W) 06:05:18 437.425
CUBESAT XI-V 25 Nov 05:59:22 06:04:06 89° 77° (ENE) 06:08:52 437.345
STRAND 1 25 Nov 06:04:15 06:09:24 84° 256° (WSW) 06:14:35 437.568
CUTE-I 25 Nov 06:11:14 06:16:31 63° 102° (ESE) 06:21:46 437.470
AIST 1 25 Nov 06:11:53 06:15:53 34° 76° (ENE) 06:19:50
PCSat 25 Nov 06:26:21 06:29:48 17° 255° (WSW) 06:33:13 145.827
BEESAT 3 25 Nov 06:38:22 06:39:45 11° 252° (WSW) 06:41:06 437.485
O/OREOS (USA 219) 25 Nov 06:48:05 06:52:06 32° 299° (WNW) 06:56:08 437.305
ISS 25 Nov 06:51:45 06:54:42 31° 224° (SW) 06:57:39 145.825
Cubesat XI-IV 25 Nov 07:09:48 07:14:42 38° 291° (WNW) 07:19:34 437.490
AO-7 25 Nov 07:16:34 07:19:11 12° 317° (NW) 07:21:47 29.400- 29.500
JAS-2 25 Nov 07:20:41 07:24:33 16° 307° (NW) 07:28:13 435.910
GONETS M04 25 Nov 07:43:42 07:52:08 53° 90° (E) 08:00:37
AIST 1 25 Nov 07:50:10 07:53:17 19° 273° (W) 07:56:22
CUTE-I 25 Nov 07:52:39 07:56:03 18° 299° (WNW) 07:59:26 437.470
CANX-2 25 Nov 07:56:50 07:59:42 17° 93° (E) 08:02:34 2200.000
COMPASS 1 25 Nov 08:04:13 08:06:23 14° 91° (E) 08:08:34 437.405
BRITE-PL 25 Nov 08:16:43 08:20:06 24° 95° (E) 08:23:29 437.365/2234.400
CUTE 1.7 & AOD 2 25 Nov 08:30:44 08:34:44 37° 98° (E) 08:38:44 437.475
POPSAT HIP 1 25 Nov 08:41:42 08:42:26 10° 62° (ENE) 08:43:11 437.405
HO-68 25 Nov 08:43:47 08:50:52 58° 102° (ESE) 08:57:52 435.675
ANTELSAT 25 Nov 08:44:41 08:47:23 17° 65° (ENE) 08:50:05 437.575/2403.000
DOVE 4 25 Nov 08:52:44 08:56:31 32° 97° (E) 09:00:22 437.250
UKube-1 25 Nov 08:53:19 08:56:21 18° 94° (E) 08:59:22 .
Oscar 11 25 Nov 09:04:40 09:08:28 29° 96° (E) 09:12:16 145.826/435.025
SEEDS 25 Nov 09:04:46 09:09:03 81° 102° (ESE) 09:13:20 437.485
POLYITAN 1 25 Nov 09:11:47 09:15:08 23° 68° (ENE) 09:18:28 437.675
